{"data":{"norad_id":66934,"intl_designator":"2025-286K","name":"STARLINK-36153","alt_names":[],"object_type":"PAYLOAD","status":"ACTIVE","operator":null,"country":"US","launch_date":"2025-12-07","launch_site_code":"AFWTR","launch_vehicle":null,"mission":null,"orbit_class":"UNKNOWN","rcs_meters":null,"size_class":null,"mass_kg":null,"dimensions":null,"purposes":["comms"],"wikipedia_slug":null,"has_3d_model":false,"image_url":null,"decayed_at":null,"tle_current":{"epoch":"2026-09-20T08:41:06.970272Z","epoch_age_seconds":96003,"freshness":"FRESH","line1":"1 66934U 25286K   26263.36188623  .00029783  00000+0  89037-3 0  9995","line2":"2 66934  53.1585 170.5548 0000982  96.5286 263.5828 15.34354800 45277","mean_motion":15.343548,"eccentricity":9.82e-5,"inclination_deg":53.1585,"raan_deg":170.5548,"arg_perigee_deg":96.5286,"mean_anomaly_deg":263.5828,"bstar":0.00089037,"rev_number":4527,"period_min":93.850522708307,"perigee_km":462.16580372607,"apogee_km":463.50937113504,"semimajor_km":6840.9745874306,"source":"CELESTRAK","updated_at":"2026-09-21T09:00:36.057484Z"}}}